Volver al catálogo

STARLINK-33792

ActivoComunicacionesVLEO
NORAD 63506·PAYLOAD·🇺🇸 United States

Lanzado Apr 7, 2025 desde Vandenberg Space Force Base

Loading…

Próximos Pases (próximas 24 horas)

TLE

ActualizadoSource: CelesTrak SupGP

Época: Sep 15, 2026, 02:39 UTC

1 63506C 25071P   26258.11090278  .00071849  00000+0  21232-2 0  2584
2 63506  53.1576 338.6715 0001188  95.5688 170.9318 15.34348819    17

Sigue STARLINK-33792 en tiempo real con AllMySat

Download on the App Store